TimeEST,TemperatureF,Dew PointF,Humidity,Sea Level PressureIn,VisibilityMPH,Wind Direction,Wind SpeedMPH,Gust SpeedMPH,PrecipitationIn,Events,Conditions,WindDirDegrees,DateUTC
12:52 AM,25.0,21.0,85,30.37,8.0,Calm,Calm,-,N/A,,Clear,0,2013-01-09 05:52:00
2:52 AM,24.1,19.9,84,30.37,7.0,Calm,Calm,-,N/A,,Clear,0,2013-01-09 07:52:00
3:52 AM,23.0,19.9,88,30.37,6.0,Calm,Calm,-,N/A,,Clear,0,2013-01-09 08:52:00
4:52 AM,19.9,17.1,89,30.39,6.0,Calm,Calm,-,N/A,,Clear,0,2013-01-09 09:52:00
5:52 AM,19.9,16.0,85,30.39,6.0,Calm,Calm,-,N/A,,Clear,0,2013-01-09 10:52:00
6:52 AM,21.0,18.0,88,30.41,6.0,Calm,Calm,-,N/A,,Clear,0,2013-01-09 11:52:00
8:52 AM,23.0,19.9,88,30.40,5.0,WNW,3.5,-,N/A,,Clear,290,2013-01-09 13:52:00
9:52 AM,27.0,23.0,85,30.37,6.0,Calm,Calm,-,N/A,,Clear,0,2013-01-09 14:52:00
10:52 AM,30.9,24.1,76,30.35,6.0,Calm,Calm,-,N/A,,Haze,0,2013-01-09 15:52:00
12:52 PM,39.0,25.0,57,30.17,9.0,SE,5.8,-,N/A,,Clear,140,2013-01-09 17:52:00
1:52 PM,44.1,23.0,43,30.17,10.0,SSW,10.4,-,N/A,,Clear,210,2013-01-09 18:52:00
2:52 PM,43.0,25.0,49,30.14,10.0,SSW,5.8,-,N/A,,Mostly Cloudy,200,2013-01-09 19:52:00
3:52 PM,41.0,28.9,62,30.08,9.0,South,9.2,-,0.00,Rain,Light Rain,170,2013-01-09 20:52:00
4:52 PM,41.0,30.0,65,30.04,10.0,Variable,5.8,-,0.00,,Overcast,0,2013-01-09 21:52:00
5:52 PM,43.0,30.9,62,30.01,10.0,SSW,8.1,-,N/A,,Scattered Clouds,200,2013-01-09 22:52:00
6:52 PM,43.0,32.0,65,30.02,10.0,WSW,11.5,25.3,N/A,,Clear,250,2013-01-09 23:52:00
7:52 PM,43.0,32.0,65,30.02,10.0,West,12.7,20.7,N/A,,Clear,270,2013-01-10 00:52:00
8:52 PM,43.0,30.9,62,30.02,10.0,WSW,9.2,21.9,N/A,,Clear,240,2013-01-10 01:52:00
9:52 PM,44.1,30.0,58,30.01,10.0,West,12.7,25.3,N/A,,Clear,260,2013-01-10 02:52:00
10:52 PM,44.1,24.1,45,30.04,10.0,West,17.3,29.9,N/A,,Clear,280,2013-01-10 03:52:00
11:52 PM,44.1,24.1,45,30.04,10.0,West,20.7,33.4,N/A,,Mostly Cloudy,280,2013-01-10 04:52:00